Weather in Maafushi

Maldives     3°56′29″N   73°29′25″E
temp.,
°C
wind,
m/s
gust,
m/s
humid.,
%
clouds,
%
prec.,
mm/h
press.,
hPa
HPBL,
m
9 march, tue
tue923:00+28nne66772 0.0 1012639
02:00+28nne447493 0.6 1009648
05:00+29ne447097 1.3 1009827
08:00+29ene34695 0.0 1011898
11:00+29ene45713 0.4 1012812
14:00+29ne457040 0.0 1009948
17:00+29ene567061 2.3 10091017
20:00+29ene677419 5.1 1011702
10 march, wed
wed1023:00+29ene677459 8.0 1012937
02:00+29e447286 2.8 1009662
05:00+29ese447193 4.4 1009570
08:00+29se5573100 1.6 1012611
11:00+29e4471100 11.3 1012474
14:00+27ne6676100 6.7 1010411
17:00+26e5583100 8.3 1009457
20:00+27e4577100 0.3 1012552
11 march, thu
thu1123:00+28ene457097 0.3 1012607
02:00+28e226535 0.0 1010730
05:00+28se236625 0.0 1009874
08:00+29ese33673 0.0 10121016
11:00+29w11657 0.9 1013766
14:00+27w888211 2.8 1010679
17:00+27w67797 5.1 1010595
20:00+28w336792 7.1 1012288
12 march, fri
fri1223:00+25ssw768796 10.3 1013309
02:00+25ssw8887100 2.4 1011355
05:00+26ssw6779100 2.6 1010369
08:00+27ese5571100 0.1 1012245
11:00+28ene91072100 0.1 1012667
14:00+28ene111375100 0.0 1009844
17:00+29ene81071100 0.0 10091164
20:00+29e7766100 0.0 10111059
13 march, sat
sat1323:00+29e777394 0.0 1012941
02:00+28e677295 0.0 1010753
05:00+28ene777297 0.0 1010866
08:00+28e9977100 0.0 1013923
11:00+28e797564 0.0 1012877
14:00+28e567597 0.0 1009916
17:00+28ene787792 0.1 1009996
20:00+28ene787682 0.1 1011955